Lid_Strength_Index
8 8 7 6 6 6 6 7 8 10 9 9 9 6 6 6 6 7 7 6 4 5 5 5 6 6 6 6 6 5 4 3 3 2 1 0 -0 0
7 8 8 8 7 7 7 6 5 7 8 8 9 8 8 7 6 7 7 6 5 5 5 6 6 7 6 6 7 5 5 4 4 3 2 2 1 0
8 8 8 8 8 8 8 6 5 6 7 7 8 9 8 8 8 8 8 8 8 6 5 6 7 7 7 7 8 7 6 6 5 4 4 3 3 2
9 9 9 7 8 8 9 9 8 7 6 7 6 9 9 9 9 9 8 8 9 7 6 6 7 7 7 7 8 8 7 7 7 7 6 6 5 4
10 10 9 9 9 9 9 9 9 8 9 8 8 10 10 10 10 10 10 11 10 8 7 6 7 7 7 7 8 10 8 8 8 8 7 7 6 6
10 10 10 10 9 9 9 9 9 9 10 10 9 10 11 11 12 13 13 13 12 10 9 9 9 9 8 7 7 9 10 8 8 9 9 9 9 8
11 10 10 9 8 8 8 9 10 10 11 11 11 12 12 13 13 13 14 14 13 13 13 13 13 13 12 8 8 8 9 9 9 9 10 10 10 10
11 11 10 9 9 7 6 6 8 10 10 10 10 11 11 12 13 13 14 14 15 14 14 14 14 14 14 13 10 9 9 10 9 9 10 10 10 10
11 11 10 9 9 9 8 7 7 6 6 10 11 12 12 12 12 13 14 14 15 14 15 15 15 15 15 13 10 9 9 9 9 8 10 10 11 11
11 11 11 11 10 9 9 10 10 10 10 9 9 9 10 10 11 12 14 15 15 14 15 17 16 16 16 15 11 9 8 9 9 8 9 10 11 11
10 10 10 10 8 6 9 11 12 11 9 8 7 7 7 7 9 14 15 16 16 16 16 15 16 16 16 15 15 10 9 9 8 8 9 9 10 10
9 9 7 7 6 6 9 11 12 11 11 11 11 10 10 9 6 12 13 15 15 14 15 16 17 17 17 17 16 15 15 10 9 8 8 9 9 11
9 9 8 6 6 6 6 9 9 9 8 10 11 11 11 11 12 11 12 14 16 14 14 16 17 18 20 19 17 18 16 15 14 12 8 8 9 9
8 8 8 5 5 6 6 6 6 5 7 9 10 10 11 10 11 11 11 12 11 12 12 15 17 16 21 21 19 18 19 17 16 17 16 12 9 9
6 6 4 4 5 5 5 5 5 7 8 9 10 11 12 11 11 11 12 12 12 12 12 13 14 16 17 19 20 20 19 17 18 18 18 17 16 15
5 6 5 4 4 4 5 5 7 7 8 9 10 10 10 10 11 11 12 12 12 13 13 13 13 15 16 17 17 19 18 18 19 18 17 16 14 13
4 5 6 6 6 7 7 8 8 8 9 9 10 10 10 10 10 11 11 12 12 13 14 14 13 14 15 16 18 16 16 18 17 18 16 17 14 13
4 6 6 6 7 7 7 7 7 7 8 9 9 9 10 10 10 10 11 11 12 12 13 13 14 15 15 14 13 15 17 16 17 16 16 19 15 14
5 5 6 6 6 6 6 6 7 7 7 8 8 9 9 9 9 10 10 11 11 11 11 13 14 17 20 20 14 10 16 18 17 17 15 14 17 13
6 6 6 6 6 7 7 6 6 6 7 7 8 8 8 9 9 10 9 10 10 10 11 12 13 14 15 17 17 16 10 16 17 16 18 15 13 10
7 7 6 6 6 6 6 6 5 6 6 7 7 7 8 8 9 9 9 8 8 10 11 12 11 10 13 13 15 14 13 9 12 17 13 13 14 16
4 5 5 5 5 5 5 5 5 5 6 6 7 7 7 8 8 8 8 9 9 9 10 10 11 10 12 12 13 17 14 12 10 9 9 10 19 22
5 5 5 5 5 5 5 5 5 5 5 5 6 6 7 7 7 8 8 8 9 9 9 10 12 11 11 11 12 15 15 16 15 15 14 10 10 10